Change the Weather History Date:

Tuesday, October 2, 2012

  Actual Average Record
Temperature  
Mean Temperature 56 °F -  
Max Temperature 63 °F 62 °F 82 °F (2002)
Min Temperature 50 °F 38 °F 28 °F (1997)
Degree Days  
Heating Degree Days 8    
Growing Degree Days 6 (Base 50)    
Moisture  
Dew Point 55 °F    
Average Humidity 92    
Maximum Humidity 100    
Minimum Humidity 72    
Precipitation  
Precipitation 0.13 in - - ()
Sea Level Pressure  
Sea Level Pressure 30.03 in    
Wind  
Wind Speed 1 mph (SW)    
Max Wind Speed 7 mph    
Max Gust Speed -    
Visibility 8 miles    
Events Rain    
Averages and records for this station are not official NWS values.
T = Trace of Precipitation, MM = Missing Value Source: NWS Daily Summary

Daily Weather History Graph

Daily Weather History Graph

Search for Another Location

Airport or City:

Trip Planner

Search our weather history database for the weather conditions in past years. The results will help you decide how hot, cold, wet, or windy it might be!

Date:

Astronomy

Oct. 02, 2012 Rise Set
Actual Time 6:47 AM EDT 6:28 PM EDT
Civil Twilight 6:19 AM EDT 6:56 PM EDT
Nautical Twilight 5:47 AM EDT 7:28 PM EDT
Astronomical Twilight 5:14 AM EDT 8:01 PM EDT
Moon 7:34 PM EDT (10/2) 9:16 AM EDT (10/2)
Length of Visible Light 12h 36m
Length of Day
11h 40m
Waning Gibbous, 94% of the Moon is Illuminated
Oct 2
Waning Gibbous
Oct 8
Last Quarter
Oct 15
New
Oct 21
First Quarter
Oct 29
Full

Hourly Weather History & Observations

Time (EDT) Temp. Dew Point Humidity Pressure Visibility Wind Dir Wind Speed Gust Speed Precip Events Conditions
12:52 AM 50.0 °F 48.9 °F 96% 29.95 in 10.0 mi Calm Calm - N/A   Clear
1:52 AM 50.0 °F 48.9 °F 96% 29.97 in 10.0 mi Calm Calm - N/A   Clear
2:52 AM 50.0 °F 48.9 °F 96% 29.97 in 10.0 mi Calm Calm - N/A   Clear
3:52 AM 51.1 °F 50.0 °F 96% 29.98 in 10.0 mi Calm Calm - N/A   Scattered Clouds
4:52 AM 50.0 °F 48.9 °F 96% 30.00 in 10.0 mi Calm Calm - N/A   Partly Cloudy
5:52 AM 51.1 °F 50.0 °F 96% 30.00 in 10.0 mi Calm Calm - N/A   Overcast
6:52 AM 51.1 °F 50.0 °F 96% 30.00 in 10.0 mi Calm Calm - N/A   Overcast
7:52 AM 53.1 °F 51.1 °F 93% 30.04 in 10.0 mi Calm Calm - N/A   Overcast
9:52 AM 60.1 °F 54.0 °F 80% 30.05 in 10.0 mi Calm Calm - N/A   Clear
10:52 AM 62.1 °F 54.0 °F 75% 30.05 in 10.0 mi Calm Calm - N/A   Partly Cloudy
11:52 AM 63.0 °F 54.0 °F 72% 30.04 in 10.0 mi Calm Calm - N/A   Overcast
12:52 PM 63.0 °F 55.0 °F 75% 30.04 in 10.0 mi SSE 3.5 mph - 0.00 in Rain Light Rain
1:52 PM 62.1 °F 57.9 °F 86% 30.04 in 10.0 mi South 4.6 mph - 0.02 in Rain Light Rain
2:52 PM 60.1 °F 55.9 °F 86% 30.03 in 10.0 mi SW 6.9 mph - 0.01 in Rain Light Rain
3:10 PM 59.0 °F 55.4 °F 88% 30.04 in 9.0 mi West 3.5 mph - 0.01 in Rain Light Rain
3:52 PM 59.0 °F 55.9 °F 90% 30.05 in 10.0 mi WNW 3.5 mph - 0.02 in Rain Light Rain
4:52 PM 59.0 °F 57.0 °F 93% 30.04 in 5.0 mi Calm Calm - 0.06 in Rain Light Rain
5:16 PM 59.0 °F 57.2 °F 94% 30.05 in 10.0 mi Calm Calm - 0.01 in Rain Light Rain
5:31 PM 59.0 °F 57.2 °F 94% 30.04 in 10.0 mi Calm Calm - 0.01 in   Overcast
5:52 PM 59.0 °F 57.0 °F 93% 30.05 in 9.0 mi Calm Calm - 0.01 in   Overcast
6:47 PM 59.0 °F 57.2 °F 94% 30.04 in 8.0 mi Calm Calm - N/A   Overcast
6:52 PM 57.9 °F 57.0 °F 97% 30.05 in 8.0 mi Calm Calm - N/A   Overcast
7:40 PM 59.0 °F 57.2 °F 94% 30.05 in 8.0 mi Calm Calm - N/A   Overcast
7:52 PM 57.9 °F 57.0 °F 97% 30.05 in 6.0 mi Calm Calm - 0.00 in Rain Light Rain
8:14 PM 57.2 °F 57.2 °F 100% 30.05 in 7.0 mi Calm Calm - 0.00 in   Overcast
8:52 PM 57.9 °F 57.0 °F 97% 30.05 in 5.0 mi Calm Calm - 0.01 in Rain Light Rain
9:24 PM 57.2 °F 57.2 °F 100% 30.05 in 4.0 mi Calm Calm - 0.00 in   Overcast
9:35 PM 57.2 °F 57.2 °F 100% 30.05 in 5.0 mi Calm Calm - 0.00 in   Overcast
10:39 PM 57.2 °F 57.2 °F 100% 30.05 in 4.0 mi Calm Calm - 0.00 in   Overcast
10:52 PM 57.9 °F 57.0 °F 97% 30.06 in 4.0 mi Calm Calm - 0.00 in   Overcast
11:52 PM 57.9 °F 57.0 °F 97% 30.05 in 4.0 mi Calm Calm - N/A   Overcast